[[{"header":{"parameterUnit":"m.s-1","parameterCategory":2,"la1":30.2991,"la2":30.254,"lo1":-89.0895,"lo2":-89.0444,"dy":0.0017,"dx":0.0017,"nx":28,"ny":28,"refTime":"2023-05-26T21:00:00:Z","depth":"0","parameterNumber":2,"parameterNumberName":"U-component_of_CURRENTS"},"data":[0,0,0,0,0,0,0,0,0,0,0,0,0,0,0,0,0,0,0,0,0,0,0,0,0,0,0,0,0,0,0,0,0,0,0,0,0,0,0,0,0,0,0,0,0,0,0,0,0,0,0,0,0,0,0,0,0,0,0.2882,0.2882,0,0.2825,0.2825,0.2824,0.2827,0.2828,0.2828,0.2829,0.2838,0.2837,0.2837,0,0,0,0,0,0,0,0,0,0,0,0,0,0.3022,0.3019,0.2882,0.2882,0.2881,0.2825,0.2825,0.2824,0.2827,0.2828,0.2829,0.283,0.2838,0.2837,0.2837,0,0,0,0,0,0,0,0,0,0,0,0,0,0.2962,0.3018,0.2883,0.2876,0.2875,0.2826,0.2825,0.2824,0.2826,0.2828,0.2829,0.283,0.2838,0.2837,0.2836,0.2806,0,0,0.2834,0.2833,0,0,0,0,0,0,0,0,0.2966,0.2957,0.2878,0.2876,0.2875,0.2835,0.2877,0.2821,0.2826,0.2844,0.2829,0.2831,0.2842,0.2841,0.2826,0.2806,0.2806,0.2834,0.2833,0.2833,0.2833,0,0,0,0,0,0,0,0.297,0.296,0.2859,0.2877,0.2875,0.2886,0.2878,0.2866,0.2838,0.2843,0.2843,0.2837,0.2842,0.2827,0.2826,0.2806,0.2834,0.2833,0.2832,0.2832,0.278,0.2779,0,0,0,0,0,0,0.2974,0.2963,0.2861,0.2858,0.2925,0.2882,0.2874,0.2846,0.2836,0.2836,0.2836,0.2837,0.2827,0.2827,0.2827,0.2803,0.2833,0.2832,0.2832,0.2781,0.278,0.2779,0,0,0,0,0,0,0.2977,0.2964,0.2864,0.2911,0.2899,0.2878,0.2847,0.2844,0.283,0.283,0.2831,0.2825,0.2828,0.2828,0.2813,0.2803,0.2832,0.2831,0.2782,0.2781,0.2779,0.2748,0,0,0,0,0,0,0.2981,0.2965,0.294,0.291,0.2897,0.2833,0.2846,0.2842,0.2824,0.2826,0.2821,0.2823,0.2829,0.2814,0.2812,0.2803,0.283,0.2783,0.2781,0.278,0.275,0.2745,0.2742,0,0,0,0,0,0.2985,0.2936,0.2939,0.2926,0.2864,0.2832,0.2825,0.2816,0.2823,0.2809,0.2807,0.2823,0.2803,0.2812,0.281,0.28,0.2784,0.2782,0.278,0.2752,0.2746,0.2742,0,0,0,0,0,0,0.2969,0.2931,0.2933,0.2871,0.2858,0.2833,0.2808,0.281,0.2794,0.2798,0.2806,0.2806,0.2793,0.2795,0.2806,0.278,0.2798,0.2795,0.2777,0.2772,0.2768,0.2771,0.283,0,0,0,0,0,0.2957,0.2919,0.2896,0.285,0.284,0.2827,0.2811,0.281,0.2795,0.2789,0.2787,0.2785,0.278,0.2776,0.2771,0.2749,0.2747,0.2744,0.2739,0.2736,0.2736,0.2709,0.2702,0.2772,0.2772,0.2772,0,0,0.2935,0.2913,0.2888,0.2846,0.2832,0.2807,0.2819,0.2792,0.278,0.2793,0.2768,0.277,0.2771,0.2752,0.2747,0.2755,0.2715,0.2734,0.2731,0.2733,0.2706,0.2699,0.2693,0.2771,0.2771,0.2771,0,0,0.2881,0.2856,0.2814,0.2804,0.2786,0.2783,0.2778,0.2756,0.2755,0.2732,0.2744,0.2736,0.272,0.2721,0.272,0.2687,0.2695,0.2688,0.2667,0.264,0.2634,0.2629,0.2618,0.2612,0.2684,0.2684,0.2684,0,0.286,0.2801,0.2798,0.2767,0.2754,0.2773,0.274,0.2738,0.2719,0.2716,0.2724,0.2696,0.2705,0.2683,0.2681,0.2679,0.2668,0.2687,0.2635,0.2629,0.2625,0.2615,0.2609,0.2682,0.2683,0.2683,0.2683,0,0.2782,0.2745,0.272,0.2694,0.2684,0.2655,0.2666,0.2664,0.2671,0.2671,0.2652,0.2651,0.2639,0.264,0.2655,0.2625,0.2631,0.2634,0.2648,0.2616,0.2608,0.2602,0.268,0.268,0.2681,0.2681,0,0,0.2701,0.2671,0.266,0.2651,0.2644,0.2628,0.2624,0.2617,0.2615,0.2607,0.2586,0.2584,0.2591,0.2591,0.26,0.2583,0.2552,0.2596,0.2596,0.2588,0.2497,0.2529,0.2526,0.254,0.2538,0.2537,0.2506,0,0.264,0.2581,0.2578,0.2536,0.2513,0.2544,0.2537,0.2548,0.2561,0.2552,0.2559,0.2544,0.257,0.2562,0.2549,0.2549,0.2534,0.2561,0.2528,0.2528,0.2561,0.252,0.2551,0.2528,0.25,0.2499,0.2499,0,0.2555,0.2535,0.2482,0.2477,0.2467,0.2452,0.2463,0.2458,0.2475,0.2485,0.248,0.2492,0.2477,0.25,0.2473,0.2486,0.2493,0.2493,0.2492,0.253,0.2549,0.2555,0.2518,0.248,0.249,0.2491,0.2491,0,0.251,0.2464,0.2427,0.2421,0.2419,0.2409,0.2409,0.2431,0.2427,0.2439,0.2434,0.2427,0.2415,0.2408,0.2433,0.2444,0.2404,0.2416,0.2449,0.2452,0.2478,0.2485,0.2403,0.2393,0.2393,0.2393,0.2393,0,0.2443,0.2407,0.2403,0.2385,0.2357,0.2365,0.234,0.2361,0.2359,0.234,0.2386,0.2364,0.2391,0.2385,0.2403,0.2408,0.2376,0.2439,0.2439,0.2469,0.2475,0.2444,0.2453,0.2392,0.2392,0.2392,0.2392,0,0.2381,0.2379,0.2348,0.234,0.2337,0.2317,0.2299,0.2288,0.2296,0.2271,0.2269,0.2301,0.2312,0.2349,0.2347,0.2371,0.2314,0.2388,0.2435,0.2442,0.2447,0.2455,0.2181,0.2086,0.241,0.241,0.2411,0,0.2325,0.2308,0.2317,0.231,0.23,0.2272,0.2261,0.2263,0.2243,0.2223,0.2202,0.2226,0.2238,0.2271,0.2347,0.239,0.2307,0.2433,0.2465,0.2442,0.245,0.2241,0.2165,0.2485,0.2486,0.2487,0.2487,0,0.2225,0.225,0.2241,0.2254,0.2244,0.2219,0.219,0.2172,0.216,0.2133,0.2099,0.2103,0.2194,0.2262,0.2361,0.2406,0.2328,0.2452,0.2401,0.2481,0.2271,0.2185,0.2519,0.2495,0.2494,0.2493,0.2493,0.2493,0.2146,0.2143,0.2165,0.2178,0.2174,0.2154,0.2109,0.2083,0.2038,0.1977,0.2011,0.2009,0.2149,0.231,0.2389,0.2509,0.2355,0.2493,0.2498,0.2277,0.2193,0.2555,0.2549,0.2548,0.2548,0.2548,0.2547,0,0.204,0.2068,0.2078,0.2086,0.2071,0.2095,0.2047,0.1986,0.1913,0.1911,0.1876,0.1983,0.211,0.2279,0.2454,0.2507,0.2383,0.2504,0.2244,0.2163,0.2495,0.2514,0.2532,0.2532,0.2532,0.2532,0.2532,0.2532,0.199,0.1984,0.2025,0.1987,0.1988,0.1918,0.1887,0.1808,0.178,0.175,0.1782,0.1858,0.2027,0.2243,0.2412,0.2462,0.2249,0.2234,0.2097,0.2439,0.2437,0.2436,0.245,0.2455,0.2455,0.1649,0.1645,0.1641]},{"header":{"parameterUnit":"m.s-1","parameterCategory":2,"la1":30.2991,"la2":30.254,"lo1":-89.0895,"lo2":-89.0444,"dy":0.0017,"dx":0.0017,"nx":28,"ny":28,"refTime":"2023-05-26T21:00:00:Z","depth":"0","parameterNumber":3,"parameterNumberName":"V-component_of_CURRENTS"},"data":[0,0,0,0,0,0,0,0,0,0,0,0,0,0,0,0,0,0,0,0,0,0,0,0,0,0,0,0,0,0,0,0,0,0,0,0,0,0,0,0,0,0,0,0,0,0,0,0,0,0,0,0,0,0,0,0,0,0,-0.2562,-0.2563,0,-0.2573,-0.2574,-0.2574,-0.2579,-0.2579,-0.2579,-0.2579,-0.2635,-0.2636,-0.2638,0,0,0,0,0,0,0,0,0,0,0,0,0,-0.2537,-0.2538,-0.2562,-0.2563,-0.2563,-0.2573,-0.2574,-0.2574,-0.2579,-0.2579,-0.2579,-0.2579,-0.2634,-0.2636,-0.2638,0,0,0,0,0,0,0,0,0,0,0,0,0,-0.2549,-0.2538,-0.2562,-0.2566,-0.2567,-0.2573,-0.2574,-0.2574,-0.2579,-0.2579,-0.2579,-0.2579,-0.2633,-0.2636,-0.2638,-0.2654,0,0,-0.2645,-0.2646,0,0,0,0,0,0,0,0,-0.2548,-0.255,-0.2566,-0.2566,-0.2566,-0.2574,-0.2585,-0.2603,-0.2579,-0.2575,-0.2579,-0.2579,-0.2618,-0.2622,-0.2624,-0.2657,-0.2659,-0.2645,-0.2647,-0.2648,-0.2648,0,0,0,0,0,0,0,-0.2547,-0.2549,-0.2568,-0.2566,-0.2566,-0.2564,-0.2566,-0.2588,-0.2599,-0.2576,-0.2576,-0.2576,-0.2619,-0.2622,-0.2626,-0.266,-0.2645,-0.2647,-0.2649,-0.2649,-0.2694,-0.2694,0,0,0,0,0,0,-0.2545,-0.2549,-0.2567,-0.2568,-0.2556,-0.2564,-0.2566,-0.2572,-0.2597,-0.26,-0.2576,-0.2576,-0.2618,-0.2623,-0.2628,-0.2629,-0.2648,-0.265,-0.2651,-0.2694,-0.2694,-0.2694,0,0,0,0,0,0,-0.2545,-0.2547,-0.2567,-0.2557,-0.256,-0.2565,-0.2572,-0.2573,-0.2577,-0.2597,-0.2601,-0.2579,-0.2618,-0.2625,-0.2644,-0.2632,-0.2651,-0.2653,-0.2694,-0.2694,-0.2694,-0.2644,0,0,0,0,0,0,-0.2544,-0.2547,-0.2552,-0.2558,-0.256,-0.2571,-0.2572,-0.2573,-0.2577,-0.2577,-0.2601,-0.2606,-0.2619,-0.264,-0.2646,-0.2636,-0.2655,-0.2694,-0.2694,-0.2694,-0.2646,-0.2642,-0.2639,0,0,0,0,0,-0.2543,-0.255,-0.2552,-0.2554,-0.2567,-0.2571,-0.2572,-0.2576,-0.2577,-0.2579,-0.2592,-0.2605,-0.2642,-0.2642,-0.2649,-0.2639,-0.2695,-0.2694,-0.2694,-0.2648,-0.2643,-0.2639,0,0,0,0,0,0,-0.2543,-0.2552,-0.2554,-0.2564,-0.2567,-0.2572,-0.2575,-0.2577,-0.2588,-0.259,-0.2608,-0.2614,-0.2622,-0.2643,-0.2642,-0.2651,-0.2669,-0.267,-0.2631,-0.2627,-0.2624,-0.2617,-0.2657,0,0,0,0,0,-0.2545,-0.2553,-0.2558,-0.2566,-0.2567,-0.2571,-0.2574,-0.2576,-0.2585,-0.2589,-0.2602,-0.2617,-0.2625,-0.2636,-0.2649,-0.2662,-0.2618,-0.266,-0.2656,-0.2653,-0.2652,-0.2551,-0.2537,-0.2692,-0.2692,-0.2692,0,0,-0.2544,-0.2553,-0.2556,-0.2567,-0.257,-0.2567,-0.2573,-0.2577,-0.2574,-0.2595,-0.2598,-0.2606,-0.2626,-0.2629,-0.2636,-0.2647,-0.2584,-0.2652,-0.2649,-0.2651,-0.2549,-0.2533,-0.2519,-0.2692,-0.2692,-0.2692,0,0,-0.2543,-0.2557,-0.2558,-0.256,-0.2565,-0.2568,-0.2569,-0.2572,-0.2574,-0.2578,-0.2584,-0.2583,-0.2609,-0.2608,-0.2614,-0.2603,-0.2564,-0.2612,-0.2592,-0.2493,-0.2478,-0.2465,-0.2372,-0.235,-0.2613,-0.2613,-0.2613,0,-0.254,-0.2541,-0.2559,-0.2557,-0.2551,-0.2567,-0.2555,-0.2565,-0.2572,-0.257,-0.2576,-0.2574,-0.2594,-0.2582,-0.2579,-0.2593,-0.2528,-0.2604,-0.2483,-0.247,-0.2457,-0.2365,-0.2342,-0.2611,-0.2611,-0.2611,-0.2611,0,-0.2532,-0.253,-0.2532,-0.2533,-0.2535,-0.2529,-0.2538,-0.2543,-0.2546,-0.2547,-0.2534,-0.2542,-0.2539,-0.2542,-0.2563,-0.2495,-0.2474,-0.2482,-0.2485,-0.2437,-0.2344,-0.2321,-0.2607,-0.2608,-0.2609,-0.2609,0,0,-0.2505,-0.2522,-0.2515,-0.2504,-0.2516,-0.2509,-0.2518,-0.2516,-0.2503,-0.2511,-0.2479,-0.2495,-0.2491,-0.2498,-0.2506,-0.2437,-0.2293,-0.2424,-0.242,-0.2316,-0.2056,-0.2072,-0.2048,-0.2262,-0.2258,-0.2255,-0.202,0,-0.248,-0.2468,-0.2486,-0.2461,-0.2445,-0.2467,-0.2464,-0.2471,-0.2475,-0.2454,-0.2458,-0.2434,-0.2477,-0.2455,-0.2398,-0.2312,-0.2233,-0.2356,-0.2133,-0.2127,-0.2133,-0.2023,-0.1981,-0.1771,-0.1998,-0.1994,-0.1991,0,-0.2433,-0.2438,-0.241,-0.2405,-0.24,-0.2392,-0.2377,-0.238,-0.238,-0.2379,-0.237,-0.2371,-0.2306,-0.2334,-0.2155,-0.2222,-0.2143,-0.2076,-0.2065,-0.2084,-0.21,-0.1861,-0.172,-0.1666,-0.1955,-0.1958,-0.1961,0,-0.2359,-0.2364,-0.2339,-0.2335,-0.2346,-0.2336,-0.2341,-0.2347,-0.2335,-0.2318,-0.2287,-0.2243,-0.2186,-0.2078,-0.1986,-0.204,-0.1759,-0.1812,-0.1752,-0.1752,-0.1679,-0.168,-0.1449,-0.1667,-0.1668,-0.1669,-0.1669,0,-0.2289,-0.2261,-0.2301,-0.2278,-0.2254,-0.2275,-0.2239,-0.2253,-0.2237,-0.2198,-0.2232,-0.2173,-0.211,-0.1982,-0.1908,-0.174,-0.1686,-0.1715,-0.1679,-0.1664,-0.1666,-0.1592,-0.1613,-0.166,-0.1662,-0.1664,-0.1665,0,-0.2182,-0.2205,-0.218,-0.2203,-0.221,-0.2184,-0.2186,-0.2165,-0.2154,-0.2093,-0.2077,-0.2057,-0.1919,-0.1844,-0.1651,-0.1624,-0.1427,-0.1433,-0.1432,-0.1403,-0.1368,-0.139,-0.115,-0.1123,-0.1328,-0.1327,-0.1326,0,-0.2121,-0.2101,-0.2125,-0.2123,-0.2128,-0.2113,-0.2108,-0.2119,-0.2094,-0.2014,-0.1972,-0.1868,-0.1788,-0.154,-0.1476,-0.1321,-0.1332,-0.1211,-0.1341,-0.1323,-0.1319,-0.134,-0.1338,-0.12,-0.1199,-0.1197,-0.1196,0,-0.2024,-0.2037,-0.2033,-0.204,-0.2035,-0.2027,-0.2017,-0.1987,-0.1971,-0.1885,-0.176,-0.1678,-0.1547,-0.1401,-0.1281,-0.1211,-0.1184,-0.118,-0.1122,-0.1166,-0.1204,-0.1176,-0.1412,-0.1181,-0.1183,-0.1184,-0.1185,-0.1185,-0.1957,-0.1941,-0.1955,-0.1949,-0.1958,-0.1939,-0.1895,-0.1858,-0.1768,-0.1585,-0.156,-0.1338,-0.1279,-0.1145,-0.1105,-0.1029,-0.1097,-0.0997,-0.1008,-0.1016,-0.1045,-0.1277,-0.1056,-0.1056,-0.1057,-0.1058,-0.1058,0,-0.1861,-0.1866,-0.1871,-0.1861,-0.1854,-0.1879,-0.1832,-0.174,-0.159,-0.1381,-0.1199,-0.0962,-0.0871,-0.0862,-0.082,-0.08,-0.0836,-0.0793,-0.0781,-0.0779,-0.0909,-0.0964,-0.0761,-0.0761,-0.0761,-0.0761,-0.0761,-0.0761,-0.1812,-0.1784,-0.1795,-0.1763,-0.1767,-0.1703,-0.1659,-0.1497,-0.1328,-0.097,-0.0726,-0.0585,-0.0571,-0.0542,-0.054,-0.057,-0.0585,-0.0603,-0.0612,-0.0691,-0.0711,-0.073,-0.0781,-0.0543,-0.0543,-0.0455,-0.0455,-0.0454]}],[{"header":{"parameterUnit":"m.s-1","parameterCategory":2,"la1":30.2991,"la2":30.254,"lo1":-89.0895,"lo2":-89.0444,"dy":0.0017,"dx":0.0017,"nx":28,"ny":28,"refTime":"2023-05-26T21:00:00:Z","depth":"2","parameterNumber":2,"parameterNumberName":"U-component_of_CURRENTS"},"data":[0,0,0,0,0,0,0,0,0,0,0,0,0,0,0,0,0,0,0,0,0,0,0,0,0,0,0,0,0,0,0,0,0,0,0,0,0,0,0,0,0,0,0,0,0,0,0,0,0,0,0,0,0,0,0,0,0,0,0.1307,0.1306,0,0.1165,0.1163,0.1161,0.1092,0.1092,0.1092,0.1093,0.1057,0.1056,0.1055,0,0,0,0,0,0,0,0,0,0,0,0,0,0.1445,0.1443,0.1308,0.1306,0.1304,0.1165,0.1163,0.1161,0.1092,0.1092,0.1093,0.1093,0.1057,0.1056,0.1055,0,0,0,0,0,0,0,0,0,0,0,0,0,0.1351,0.1443,0.1308,0.1254,0.1248,0.1165,0.1163,0.116,0.1092,0.1092,0.1093,0.1093,0.1058,0.1056,0.1054,0.1039,0,0,0.1049,0.1049,0,0,0,0,0,0,0,0,0.1357,0.1346,0.1264,0.1258,0.1251,0.1148,0.1198,0.1125,0.1092,0.115,0.1093,0.1093,0.1098,0.1093,0.1062,0.1037,0.1035,0.1049,0.1048,0.1047,0.1047,0,0,0,0,0,0,0,0.1363,0.1351,0.1249,0.1262,0.1254,0.1212,0.1199,0.1183,0.1125,0.1145,0.114,0.1126,0.1095,0.1063,0.1061,0.1035,0.1049,0.1048,0.1047,0.1046,0.1062,0.1064,0,0,0,0,0,0,0.1387,0.1358,0.1254,0.1245,0.1307,0.1209,0.1195,0.1179,0.1123,0.1114,0.1126,0.1123,0.1066,0.1063,0.106,0.1106,0.1047,0.1046,0.1045,0.1061,0.1063,0.1064,0,0,0,0,0,0,0.1391,0.1379,0.126,0.13,0.1282,0.1207,0.119,0.1176,0.1151,0.1108,0.11,0.1115,0.1066,0.1062,0.1054,0.1102,0.1045,0.1044,0.1059,0.1062,0.1064,0.1157,0,0,0,0,0,0,0.1395,0.1381,0.1381,0.1301,0.128,0.1223,0.1189,0.1174,0.1142,0.1138,0.1096,0.1092,0.1066,0.1057,0.1053,0.1099,0.1042,0.1058,0.106,0.1063,0.1152,0.1162,0.117,0,0,0,0,0,0.1401,0.1398,0.1382,0.137,0.1282,0.1223,0.1209,0.1155,0.1142,0.1133,0.1108,0.1094,0.1072,0.1056,0.1051,0.1098,0.1056,0.106,0.1063,0.1148,0.116,0.117,0,0,0,0,0,0,0.1458,0.1388,0.137,0.1347,0.1297,0.1213,0.12,0.1163,0.113,0.1135,0.1096,0.109,0.1115,0.1084,0.1067,0.1111,0.1069,0.1071,0.1135,0.1146,0.1156,0.1163,0.1041,0,0,0,0,0,0.1473,0.1453,0.1383,0.1367,0.1348,0.1278,0.1249,0.1213,0.117,0.1153,0.1119,0.1105,0.1121,0.1114,0.1111,0.1116,0.1121,0.1148,0.1157,0.1165,0.1168,0.1219,0.1233,0.1075,0.1075,0.1075,0,0,0.1493,0.1451,0.1441,0.1379,0.1338,0.131,0.1261,0.1225,0.1211,0.116,0.1139,0.1139,0.1132,0.1152,0.116,0.113,0.1215,0.1169,0.1176,0.1174,0.1224,0.1239,0.1253,0.1077,0.1077,0.1076,0,0,0.1509,0.1488,0.147,0.1439,0.1382,0.1341,0.1337,0.126,0.1241,0.1215,0.1205,0.1228,0.1196,0.1218,0.1227,0.1282,0.1272,0.1284,0.1325,0.1376,0.1389,0.1401,0.1441,0.1456,0.1277,0.1278,0.1278,0,0.1543,0.1496,0.1458,0.1436,0.1415,0.1363,0.1344,0.1321,0.1251,0.1251,0.1225,0.1237,0.1238,0.1298,0.1321,0.1309,0.1321,0.1286,0.139,0.1401,0.1412,0.1449,0.1465,0.1282,0.1282,0.1281,0.1281,0,0.1525,0.1505,0.1498,0.1455,0.1438,0.1412,0.1381,0.137,0.1343,0.1315,0.1349,0.1343,0.1351,0.1373,0.1362,0.1449,0.143,0.1408,0.1364,0.1434,0.1468,0.1483,0.1289,0.1288,0.1286,0.1285,0,0,0.155,0.1495,0.1493,0.1483,0.1443,0.1426,0.1438,0.142,0.1432,0.1405,0.1421,0.1471,0.1464,0.1474,0.1479,0.152,0.1623,0.1493,0.1493,0.1538,0.1728,0.1676,0.1686,0.1615,0.1618,0.162,0.1727,0,0.1542,0.1514,0.1482,0.1474,0.1462,0.1448,0.1459,0.146,0.1451,0.1458,0.1492,0.1506,0.1505,0.1514,0.1568,0.1598,0.1662,0.1596,0.1648,0.165,0.16,0.1701,0.1452,0.1523,0.174,0.1743,0.1744,0,0.1524,0.1504,0.1497,0.1485,0.148,0.1475,0.1497,0.1494,0.1523,0.1517,0.1552,0.1557,0.1628,0.1606,0.1718,0.167,0.172,0.1744,0.1748,0.1673,0.1624,0.1485,0.154,0.1768,0.1766,0.1764,0.1762,0,0.1557,0.1518,0.1516,0.1512,0.1496,0.1503,0.1491,0.1515,0.1513,0.155,0.1551,0.1626,0.1647,0.1724,0.1762,0.1753,0.1865,0.1858,0.187,0.1866,0.1651,0.1623,0.1972,0.1972,0.1971,0.1971,0.1971,0,0.1565,0.1567,0.1529,0.1534,0.1539,0.1521,0.1534,0.1539,0.1536,0.1543,0.1578,0.1597,0.1676,0.1732,0.1788,0.1857,0.1894,0.1904,0.1902,0.1677,0.1652,0.1847,0.1831,0.1975,0.1974,0.1973,0.1973,0,0.1616,0.1597,0.1594,0.1565,0.1559,0.1567,0.1531,0.1531,0.1529,0.1539,0.1545,0.1588,0.1659,0.1725,0.1837,0.1876,0.1948,0.1968,0.1691,0.1655,0.192,0.1908,0.203,0.203,0.2029,0.2028,0.2028,0,0.1626,0.1628,0.1619,0.1609,0.1591,0.1582,0.1571,0.1544,0.1529,0.153,0.1534,0.159,0.1636,0.1758,0.1825,0.1922,0.1941,0.1732,0.1693,0.1947,0.1933,0.1921,0.191,0.1449,0.1444,0.144,0.1437,0,0.1606,0.162,0.1605,0.1616,0.1602,0.159,0.1556,0.153,0.1502,0.15,0.1503,0.1534,0.1652,0.1605,0.1691,0.1726,0.1694,0.1656,0.1989,0.1474,0.1408,0.1391,0.1397,0.1399,0.1403,0.1406,0.1408,0.1409,0.1556,0.1563,0.1549,0.1576,0.1566,0.1543,0.1504,0.1455,0.1411,0.1336,0.1439,0.1343,0.14,0.1393,0.1439,0.1447,0.1623,0.1484,0.1493,0.1508,0.1422,0.1359,0.1325,0.1329,0.1331,0.1334,0.1336,0,0.1457,0.1486,0.149,0.1486,0.1463,0.1514,0.1452,0.1364,0.1273,0.1237,0.1233,0.0984,0.0967,0.0984,0.0976,0.1116,0.1112,0.1023,0.092,0.0956,0.0988,0.0873,0.0633,0.0632,0.063,0.0629,0,0,0.1382,0.1375,0.142,0.1374,0.139,0.1308,0.1272,0.1141,0.1054,0.0865,0.0708,0.0841,0.0853,0.0647,0.0743,0.0651,0.0809,0.0639,0.1186,0.1092,0.1123,0.1224,0.1084,0,0,0,0,0]},{"header":{"parameterUnit":"m.s-1","parameterCategory":2,"la1":30.2991,"la2":30.254,"lo1":-89.0895,"lo2":-89.0444,"dy":0.0017,"dx":0.0017,"nx":28,"ny":28,"refTime":"2023-05-26T21:00:00:Z","depth":"2","parameterNumber":3,"parameterNumberName":"V-component_of_CURRENTS"},"data":[0,0,0,0,0,0,0,0,0,0,0,0,0,0,0,0,0,0,0,0,0,0,0,0,0,0,0,0,0,0,0,0,0,0,0,0,0,0,0,0,0,0,0,0,0,0,0,0,0,0,0,0,0,0,0,0,0,0,0.0827,0.0827,0,0.0763,0.0763,0.0762,0.0662,0.066,0.0658,0.0656,0.0528,0.0527,0.0525,0,0,0,0,0,0,0,0,0,0,0,0,0,0.0876,0.0876,0.0828,0.0827,0.0826,0.0764,0.0763,0.0762,0.0662,0.066,0.0658,0.0655,0.0529,0.0527,0.0525,0,0,0,0,0,0,0,0,0,0,0,0,0,0.0839,0.0876,0.0828,0.0768,0.0762,0.0764,0.0763,0.0762,0.0663,0.066,0.0657,0.0654,0.0529,0.0527,0.0525,0.0567,0,0,0.0517,0.0516,0,0,0,0,0,0,0,0,0.0841,0.0838,0.0777,0.0772,0.0765,0.0717,0.0733,0.0693,0.0664,0.0702,0.0656,0.0653,0.0587,0.058,0.0576,0.0561,0.0555,0.0517,0.0515,0.0514,0.0514,0,0,0,0,0,0,0,0.0844,0.084,0.0803,0.0777,0.0769,0.0748,0.074,0.0725,0.0661,0.0698,0.069,0.0682,0.0583,0.0579,0.0572,0.0553,0.0517,0.0515,0.0513,0.0512,0.0459,0.0459,0,0,0,0,0,0,0.0852,0.0843,0.0805,0.0801,0.0796,0.075,0.074,0.0736,0.0662,0.0648,0.0685,0.0678,0.0585,0.0575,0.0567,0.0533,0.0514,0.0512,0.0511,0.0459,0.0459,0.0459,0,0,0,0,0,0,0.0854,0.085,0.0808,0.0819,0.0812,0.0752,0.0748,0.0736,0.0683,0.0652,0.0637,0.0637,0.0582,0.0571,0.0527,0.053,0.0511,0.0509,0.0459,0.0459,0.0459,0.0516,0,0,0,0,0,0,0.0856,0.0851,0.0831,0.082,0.0812,0.0785,0.075,0.0737,0.0685,0.0674,0.0608,0.0596,0.0579,0.0531,0.0524,0.0526,0.0507,0.0459,0.0459,0.0459,0.0514,0.0518,0.0521,0,0,0,0,0,0.0858,0.0853,0.0831,0.0825,0.0793,0.0785,0.0779,0.0727,0.0685,0.0667,0.0623,0.0595,0.0526,0.0529,0.0521,0.0523,0.0459,0.0459,0.0459,0.0512,0.0517,0.0521,0,0,0,0,0,0,0.0856,0.0842,0.0818,0.0804,0.0782,0.0767,0.0739,0.0709,0.0662,0.0632,0.0599,0.0586,0.0548,0.0527,0.0531,0.0507,0.0487,0.0486,0.053,0.0534,0.0538,0.049,0.0505,0,0,0,0,0,0.0852,0.0842,0.0826,0.0808,0.0794,0.0759,0.0738,0.0706,0.0675,0.0647,0.0606,0.0567,0.0555,0.0533,0.0511,0.0501,0.0456,0.0495,0.0499,0.0502,0.0457,0.0385,0.0377,0.046,0.046,0.046,0,0,0.0843,0.0835,0.0824,0.0806,0.0779,0.0775,0.0737,0.07,0.0691,0.0644,0.0599,0.0571,0.0553,0.0542,0.0524,0.0517,0.0471,0.0502,0.0506,0.0457,0.0384,0.0375,0.0368,0.046,0.046,0.046,0,0,0.0844,0.0814,0.0809,0.0799,0.0763,0.0752,0.0733,0.0697,0.0666,0.0645,0.0608,0.0555,0.055,0.0519,0.0515,0.0516,0.049,0.0535,0.0517,0.0451,0.0442,0.0434,0.0436,0.0427,0.0541,0.0541,0.0541,0,0.0824,0.0827,0.0804,0.0805,0.0792,0.0741,0.0736,0.072,0.0671,0.0658,0.0628,0.0571,0.0532,0.0518,0.0514,0.0519,0.0507,0.0511,0.0454,0.0444,0.0435,0.0438,0.0427,0.0544,0.0544,0.0544,0.0543,0,0.0832,0.0827,0.0822,0.0811,0.08,0.0781,0.0765,0.0732,0.0692,0.0683,0.0634,0.0576,0.0535,0.0533,0.0522,0.0459,0.0486,0.0467,0.0442,0.043,0.0435,0.0423,0.0548,0.0547,0.0546,0.0546,0,0,0.0774,0.0822,0.0805,0.0814,0.0796,0.0786,0.0779,0.0765,0.0756,0.0695,0.0682,0.0612,0.0558,0.054,0.051,0.0435,0.0374,0.0423,0.0419,0.0424,0.0284,0.0361,0.0356,0.0359,0.0356,0.0353,0.034,0,0.0766,0.0794,0.0814,0.0817,0.0822,0.0804,0.0808,0.0789,0.0776,0.0757,0.0679,0.0641,0.0581,0.0543,0.0466,0.0365,0.0334,0.0381,0.0292,0.0289,0.0356,0.0339,0.0425,0.0424,0.0328,0.0326,0.0325,0,0.0723,0.0767,0.0777,0.0829,0.0824,0.0807,0.0791,0.0793,0.0782,0.0763,0.0709,0.0687,0.0551,0.0513,0.0325,0.0366,0.0326,0.0263,0.0261,0.0283,0.034,0.0405,0.0405,0.0304,0.0306,0.0308,0.0309,0,0.065,0.0716,0.0724,0.0734,0.0788,0.0763,0.0759,0.076,0.0727,0.0731,0.0701,0.0628,0.0533,0.0422,0.0302,0.0306,0.0138,0.0135,0.0192,0.0201,0.0221,0.0237,0.0043,0.0043,0.0043,0.0043,0.0043,0,0.0602,0.0601,0.068,0.0676,0.0673,0.0708,0.0667,0.0679,0.0644,0.0607,0.0652,0.0603,0.0494,0.0425,0.0323,0.0212,0.0153,0.0165,0.0177,0.0256,0.0273,0.0107,0.0115,0.0043,0.0043,0.0043,0.0043,0,0.0484,0.0536,0.0564,0.0629,0.0622,0.0597,0.0548,0.0551,0.0517,0.0463,0.044,0.0501,0.043,0.0388,0.0249,0.023,0.0123,0.0137,0.0278,0.0306,0.0241,0.0251,0.0163,0.0165,0.0167,0.0168,0.0169,0,0.0443,0.0437,0.0493,0.0503,0.0507,0.0473,0.0462,0.0441,0.0427,0.0388,0.0369,0.0369,0.0408,0.0313,0.0284,0.0213,0.0176,0.0299,0.029,0.0219,0.024,0.0249,0.0257,0.0375,0.0378,0.038,0.0382,0,0.039,0.0377,0.042,0.043,0.0418,0.0419,0.0384,0.0348,0.0336,0.0309,0.0287,0.0315,0.0322,0.0375,0.0405,0.0351,0.0303,0.0345,0.019,0.034,0.042,0.0441,0.0441,0.0402,0.04,0.0399,0.0398,0.0397,0.0359,0.0359,0.0398,0.0404,0.0391,0.0397,0.0388,0.0378,0.0356,0.037,0.0334,0.0457,0.0484,0.0621,0.0478,0.0405,0.0415,0.0445,0.0437,0.0426,0.0461,0.0539,0.0555,0.0554,0.0553,0.0553,0.0552,0,0.0392,0.036,0.0383,0.0416,0.0425,0.0373,0.0376,0.0401,0.0408,0.0494,0.0485,0.0653,0.075,0.07,0.0621,0.0541,0.0482,0.0513,0.0484,0.0472,0.0458,0.0489,0.0593,0.0591,0.059,0.0588,0,0,0.0417,0.0432,0.045,0.0478,0.0439,0.0431,0.0433,0.0442,0.0515,0.0682,0.0824,0.0963,0.0932,0.0891,0.0759,0.0668,0.0555,0.0634,0.0642,0.0615,0.0599,0.0498,0.0544,0,0,0,0,0]}],[{"header":{"parameterUnit":"m.s-1","parameterCategory":2,"la1":30.2991,"la2":30.254,"lo1":-89.0895,"lo2":-89.0444,"dy":0.0017,"dx":0.0017,"nx":28,"ny":28,"refTime":"2023-05-26T21:00:00:Z","depth":"4","parameterNumber":2,"parameterNumberName":"U-component_of_CURRENTS"},"data":[0,0,0,0,0,0,0,0,0,0,0,0,0,0,0,0,0,0,0,0,0,0,0,0,0,0,0,0,0,0,0,0,0,0,0,0,0,0,0,0,0,0,0,0,0,0,0,0,0,0,0,0,0,0,0,0,0,0,-0.0324,-0.0324,0,-0.0299,-0.0298,-0.0298,-0.0263,-0.0262,-0.0262,-0.0261,-0.032,-0.0322,-0.0324,0,0,0,0,0,0,0,0,0,0,0,0,0,-0.0339,-0.0339,-0.0324,-0.0324,-0.0324,-0.0299,-0.0298,-0.0298,-0.0263,-0.0262,-0.0262,-0.0261,-0.0319,-0.0322,-0.0324,0,0,0,0,0,0,0,0,0,0,0,0,0,-0.0324,-0.0339,-0.0324,-0.0304,-0.0302,-0.0299,-0.0298,-0.0298,-0.0263,-0.0262,-0.0261,-0.0261,-0.0318,-0.0321,-0.0324,-0.0358,0,0,-0.0334,-0.0335,0,0,0,0,0,0,0,0,-0.0325,-0.0323,-0.0307,-0.0305,-0.0303,-0.0284,-0.0325,-0.0323,-0.0263,-0.0277,-0.0261,-0.026,-0.0317,-0.032,-0.0314,-0.0361,-0.0364,-0.0334,-0.0336,-0.0337,-0.0338,0,0,0,0,0,0,0,-0.0326,-0.0324,-0.0313,-0.0307,-0.0305,-0.0295,-0.0292,-0.0324,-0.0302,-0.0275,-0.0273,-0.0272,-0.0316,-0.0311,-0.0316,-0.0365,-0.0334,-0.0337,-0.0339,-0.034,-0.0294,-0.0291,0,0,0,0,0,0,-0.0332,-0.0325,-0.0314,-0.0312,-0.0313,-0.0295,-0.0292,-0.029,-0.03,-0.03,-0.0273,-0.027,-0.0306,-0.0312,-0.0318,-0.0248,-0.0337,-0.034,-0.0342,-0.0297,-0.0294,-0.029,0,0,0,0,0,0,-0.0333,-0.0331,-0.0315,-0.0319,-0.0316,-0.0296,-0.0294,-0.029,-0.0281,-0.0297,-0.0299,-0.0268,-0.0306,-0.0314,-0.0325,-0.0254,-0.0341,-0.0344,-0.0301,-0.0296,-0.0292,-0.0179,0,0,0,0,0,0,-0.0333,-0.0332,-0.0329,-0.032,-0.0316,-0.031,-0.0295,-0.029,-0.0282,-0.0279,-0.0294,-0.0298,-0.0306,-0.0321,-0.0328,-0.026,-0.0347,-0.0305,-0.0299,-0.0294,-0.0187,-0.0172,-0.0158,0,0,0,0,0,-0.0334,-0.0331,-0.0329,-0.0328,-0.0315,-0.031,-0.0308,-0.029,-0.0283,-0.0279,-0.0277,-0.0298,-0.0287,-0.0323,-0.0332,-0.0262,-0.0308,-0.0301,-0.0294,-0.0193,-0.0175,-0.0159,0,0,0,0,0,0,-0.0338,-0.0327,-0.0325,-0.032,-0.0316,-0.0304,-0.0302,-0.0293,-0.0287,-0.0283,-0.0296,-0.0301,-0.0265,-0.0293,-0.033,-0.0226,-0.0287,-0.0281,-0.0206,-0.0189,-0.0175,-0.0234,-0.0349,0,0,0,0,0,-0.034,-0.034,-0.0327,-0.0331,-0.0326,-0.0316,-0.0312,-0.0298,-0.0294,-0.0289,-0.0275,-0.0262,-0.0244,-0.0245,-0.0234,-0.0219,-0.0287,-0.0166,-0.0152,-0.014,-0.019,-0.0241,-0.0238,-0.0268,-0.0268,-0.0268,0,0,-0.0348,-0.0342,-0.0343,-0.0333,-0.033,-0.0304,-0.0311,-0.0303,-0.0267,-0.0302,-0.024,-0.0223,-0.0229,-0.0175,-0.016,-0.0194,-0.015,-0.0131,-0.0121,-0.018,-0.0234,-0.0232,-0.023,-0.0263,-0.0264,-0.0265,0,0,-0.0362,-0.0355,-0.0354,-0.0338,-0.0326,-0.0306,-0.0304,-0.0268,-0.024,-0.0188,-0.0183,-0.0159,-0.0103,-0.0106,-0.0102,-0.0023,-0.0071,0.0038,0.0051,0.0006,0.0006,0.0005,-0.0023,-0.0028,0.0042,0.0042,0.0043,0,-0.0364,-0.036,-0.0355,-0.0337,-0.0319,-0.0303,-0.0282,-0.0248,-0.0207,-0.0198,-0.0147,-0.0087,-0.0079,-0.0077,-0.0005,0.0003,-0.0019,-0.0013,0.0019,0.0016,0.0013,-0.0017,-0.0023,0.0049,0.0048,0.0047,0.0047,0,-0.036,-0.0353,-0.0352,-0.0315,-0.0293,-0.0278,-0.0228,-0.0188,-0.0128,-0.0095,-0.0047,-0.0024,-0.0004,0.0052,0.0058,0.0064,0.0061,0.0044,-0.0038,0.0021,-0.0011,-0.002,0.0058,0.0055,0.0053,0.0052,0,0,-0.0355,-0.0351,-0.0346,-0.0332,-0.0277,-0.0259,-0.0202,-0.0165,-0.0142,-0.0056,-0.0041,0.0043,0.0048,0.005,0.0065,0.0045,0.0057,0.0059,0.0054,0.0007,-0.0019,0.0071,0.0069,0.0062,0.006,0.0059,-0.0014,0,-0.0348,-0.0332,-0.0321,-0.0281,-0.0257,-0.0223,-0.0165,-0.0126,-0.0076,-0.0044,-0.0039,0.0006,0.0051,0.0083,0.0067,0.0055,0.003,0.0078,-0.0053,-0.0058,-0.0006,0.0059,0.0052,-0.0021,-0.0024,-0.0025,-0.0027,0,-0.0314,-0.0317,-0.0291,-0.0263,-0.0248,-0.0199,-0.0141,-0.0093,-0.0069,-0.0035,-0.0032,-0.0017,-0.0024,0.0011,-0.0033,0.001,-0.0003,-0.002,-0.0024,-0.001,0.0013,-0.0105,-0.0045,-0.0044,-0.0042,-0.0041,-0.004,0,-0.0286,-0.0278,-0.0265,-0.0246,-0.0204,-0.0173,-0.013,-0.0082,-0.0049,-0.0045,-0.0031,-0.0052,-0.0028,-0.0077,-0.0053,-0.004,-0.0116,-0.0118,-0.0076,-0.007,-0.0188,-0.0187,-0.0198,-0.0198,-0.0198,-0.0197,-0.0197,0,-0.0251,-0.0242,-0.0246,-0.0225,-0.0184,-0.0145,-0.0087,-0.0061,-0.0032,-0.0007,-0.0023,-0.0028,-0.0039,-0.0064,-0.0088,-0.0084,-0.0145,-0.0088,-0.0088,-0.0125,-0.0116,-0.0192,-0.019,-0.02,-0.02,-0.0199,-0.0199,0,-0.0218,-0.0225,-0.0206,-0.018,-0.0162,-0.0116,-0.0045,-0.0019,0.0013,0.0029,0.0035,0.0012,0.0007,-0.0025,-0.0085,-0.0088,-0.0135,-0.0134,-0.0156,-0.0155,-0.0059,-0.005,-0.0113,-0.011,-0.0108,-0.0107,-0.0105,0,-0.0209,-0.0197,-0.0172,-0.0159,-0.0144,-0.008,-0.0039,0.0014,0.0032,0.0052,0.004,0.0049,0.004,-0.0012,-0.0032,-0.0085,-0.0085,-0.0117,-0.0103,-0.0059,-0.0053,-0.0048,-0.0042,-0.0102,-0.0101,-0.0101,-0.01,0,-0.0205,-0.0191,-0.0188,-0.0153,-0.0113,-0.0077,-0.0019,-0.0004,0.0051,0.0075,0.0061,0.0052,0.0047,0.0017,0.0012,-0.0043,-0.0101,-0.0096,-0.0101,-0.0088,-0.0046,-0.0041,-0.0038,-0.0093,-0.0094,-0.0095,-0.0095,0,-0.021,-0.0206,-0.0195,-0.0161,-0.0128,-0.0101,-0.0059,-0.0029,0.0009,0.0045,0.0045,0.0027,0.005,0.0038,0.0003,0.0008,-0.0001,-0.003,-0.0039,-0.0047,0.0019,0.0084,0.0067,0,0,0,0,0,-0.0215,-0.0219,-0.021,-0.0173,-0.0143,-0.0122,-0.0074,-0.0038,0.002,0.002,0.0047,0.0042,0.0048,0.0018,0.0036,0.003,-0.0012,0.005,-0.0054,-0.0053,-0.0062,0.0015,0,0,0,0,0,0,-0.0228,-0.0223,-0.0224,-0.0202,-0.0183,-0.0146,-0.0128,-0.0088,-0.0081,-0.0023,-0.0034,0.0041,0.0024,0.0039,0.003,0.0036,-0.003,0.0072,0.0072,-0.0049,-0.0056,-0.0063,0.0013,0,0,0,0,0]},{"header":{"parameterUnit":"m.s-1","parameterCategory":2,"la1":30.2991,"la2":30.254,"lo1":-89.0895,"lo2":-89.0444,"dy":0.0017,"dx":0.0017,"nx":28,"ny":28,"refTime":"2023-05-26T21:00:00:Z","depth":"4","parameterNumber":3,"parameterNumberName":"V-component_of_CURRENTS"},"data":[0,0,0,0,0,0,0,0,0,0,0,0,0,0,0,0,0,0,0,0,0,0,0,0,0,0,0,0,0,0,0,0,0,0,0,0,0,0,0,0,0,0,0,0,0,0,0,0,0,0,0,0,0,0,0,0,0,0,0.0586,0.0586,0,0.0584,0.0584,0.0584,0.0643,0.0645,0.0646,0.0648,0.0722,0.0722,0.0723,0,0,0,0,0,0,0,0,0,0,0,0,0,0.0606,0.0605,0.0586,0.0586,0.0586,0.0584,0.0584,0.0584,0.0643,0.0645,0.0647,0.0649,0.0722,0.0722,0.0723,0,0,0,0,0,0,0,0,0,0,0,0,0,0.0599,0.0605,0.0586,0.0616,0.0619,0.0584,0.0584,0.0584,0.0642,0.0645,0.0647,0.065,0.0722,0.0722,0.0723,0.0678,0,0,0.0725,0.0725,0,0,0,0,0,0,0,0,0.0599,0.0598,0.0612,0.0614,0.0617,0.0617,0.0618,0.0619,0.0642,0.0633,0.0648,0.0651,0.0692,0.0696,0.0688,0.0681,0.0684,0.0725,0.0725,0.0726,0.0726,0,0,0,0,0,0,0,0.06,0.0598,0.0585,0.0611,0.0615,0.0617,0.0619,0.0618,0.065,0.0634,0.0638,0.0638,0.0695,0.0687,0.069,0.0685,0.0725,0.0726,0.0726,0.0726,0.0748,0.0749,0,0,0,0,0,0,0.06,0.0599,0.0585,0.0585,0.0615,0.0615,0.0617,0.0614,0.0648,0.0655,0.0636,0.0641,0.0685,0.0689,0.0693,0.0736,0.0726,0.0726,0.0727,0.0748,0.0748,0.0749,0,0,0,0,0,0,0.06,0.0599,0.0585,0.0593,0.0591,0.0612,0.0608,0.0613,0.0636,0.0649,0.0658,0.0659,0.0687,0.0692,0.0732,0.0737,0.0727,0.0727,0.0748,0.0748,0.0749,0.0762,0,0,0,0,0,0,0.0601,0.0599,0.0603,0.0592,0.0591,0.0581,0.0606,0.0611,0.0631,0.0638,0.0671,0.0679,0.0689,0.0731,0.0733,0.0737,0.0728,0.0748,0.0748,0.0748,0.0761,0.0763,0.0764,0,0,0,0,0,0.0601,0.0592,0.0603,0.0602,0.0593,0.0581,0.0581,0.0603,0.063,0.0635,0.0675,0.0679,0.0734,0.0732,0.0734,0.0739,0.0748,0.0748,0.0748,0.0761,0.0763,0.0764,0,0,0,0,0,0,0.0604,0.0597,0.0609,0.0599,0.06,0.0592,0.06,0.0612,0.0642,0.0678,0.0685,0.0695,0.0722,0.0729,0.0726,0.0745,0.0739,0.074,0.0748,0.0749,0.0751,0.0743,0.0728,0,0,0,0,0,0.0603,0.0597,0.0594,0.0589,0.0594,0.0601,0.0604,0.0631,0.0649,0.0667,0.0705,0.0731,0.0714,0.0737,0.0741,0.0758,0.0729,0.076,0.0762,0.0763,0.0757,0.0717,0.0714,0.075,0.075,0.075,0,0,0.0596,0.0598,0.0591,0.0589,0.0597,0.0608,0.061,0.0637,0.0652,0.0669,0.0733,0.0738,0.0717,0.0735,0.0749,0.0754,0.0736,0.0763,0.0764,0.0758,0.0717,0.0713,0.071,0.075,0.075,0.075,0,0,0.0586,0.0592,0.059,0.0598,0.0626,0.0633,0.0646,0.0681,0.0703,0.0755,0.0749,0.0756,0.0798,0.0759,0.0739,0.0744,0.0734,0.0765,0.0779,0.074,0.0737,0.0733,0.0684,0.0676,0.0779,0.0779,0.0779,0,0.0586,0.0591,0.0587,0.0601,0.0612,0.0647,0.0663,0.0674,0.073,0.0731,0.0796,0.0788,0.0791,0.0717,0.0742,0.0742,0.0733,0.0775,0.0741,0.0737,0.0733,0.0684,0.0674,0.0779,0.0779,0.0779,0.0779,0,0.0577,0.0598,0.0602,0.0632,0.0635,0.0665,0.0681,0.0718,0.0776,0.0785,0.0785,0.0791,0.0781,0.0776,0.0776,0.0729,0.0734,0.0736,0.0735,0.073,0.0678,0.0669,0.078,0.078,0.078,0.078,0,0,0.0558,0.0588,0.0603,0.0628,0.0668,0.0676,0.0691,0.0692,0.0697,0.0768,0.0741,0.0739,0.0761,0.0738,0.072,0.0703,0.0674,0.074,0.0737,0.0687,0.06,0.0619,0.0609,0.0694,0.0692,0.0691,0.0572,0,0.057,0.0598,0.0609,0.0655,0.0674,0.0697,0.0709,0.0718,0.073,0.0727,0.0694,0.0697,0.0732,0.075,0.0727,0.0685,0.0652,0.0706,0.0615,0.0612,0.0626,0.06,0.0687,0.0565,0.0562,0.0561,0.0559,0,0.0586,0.06,0.0645,0.0679,0.0692,0.0752,0.0759,0.0766,0.0726,0.073,0.07,0.0683,0.064,0.0691,0.0615,0.0666,0.0642,0.0612,0.0607,0.0613,0.0613,0.0572,0.0541,0.0543,0.0544,0.0545,0.0546,0,0.0606,0.0637,0.068,0.0698,0.0739,0.0791,0.083,0.0809,0.0805,0.0745,0.0737,0.0663,0.0677,0.0617,0.0585,0.062,0.0492,0.0513,0.0479,0.0478,0.0491,0.0496,0.0438,0.0438,0.0439,0.0439,0.0439,0,0.0638,0.0676,0.0727,0.0774,0.0838,0.0857,0.0916,0.0911,0.089,0.0879,0.0784,0.0738,0.0683,0.0599,0.0547,0.0486,0.046,0.0465,0.0448,0.0499,0.0507,0.0483,0.0489,0.0434,0.0435,0.0436,0.0437,0,0.0688,0.0711,0.0776,0.0849,0.0878,0.0952,0.1024,0.1033,0.1015,0.0983,0.098,0.0838,0.0748,0.0627,0.0515,0.0475,0.0373,0.0346,0.0383,0.0372,0.0391,0.04,0.03,0.03,0.03,0.0299,0.0299,0,0.0707,0.075,0.0854,0.0894,0.0969,0.1055,0.1104,0.1124,0.1103,0.1036,0.1001,0.0909,0.081,0.0594,0.0503,0.0343,0.0344,0.0281,0.0364,0.0383,0.0376,0.0385,0.0394,0.0299,0.0299,0.0299,0.0299,0,0.0727,0.0802,0.0855,0.0966,0.1063,0.1094,0.1166,0.1157,0.1154,0.1142,0.101,0.0896,0.0764,0.0602,0.0481,0.037,0.0316,0.0279,0.028,0.0357,0.038,0.0375,0.0384,0.0298,0.0298,0.0298,0.0298,0,0.0755,0.0804,0.0903,0.1001,0.1086,0.1118,0.1143,0.1123,0.1119,0.1056,0.1023,0.0863,0.0803,0.0614,0.0485,0.0393,0.0401,0.0385,0.0381,0.0381,0.0458,0.0502,0.043,0,0,0,0,0,0.0758,0.0819,0.0897,0.1003,0.1089,0.1136,0.1152,0.1147,0.1158,0.1081,0.1056,0.0923,0.0752,0.0621,0.0535,0.0505,0.0392,0.0404,0.0372,0.0292,0.0293,0.0375,0,0,0,0,0,0,0.0767,0.0848,0.0895,0.0983,0.1044,0.1121,0.1129,0.1123,0.1034,0.1033,0.09,0.0923,0.0706,0.0813,0.054,0.0513,0.0485,0.0333,0.0332,0.0291,0.0292,0.0293,0.0378,0,0,0,0,0]}]]